Retour au catalogue

SLS R/B

ActifHEO
NORAD 54258·ROCKET BODY·🇺🇸 United States

Lancé Nov 16, 2022 depuis Cape Canaveral Space Force Station

Loading…

Prochains Passages (prochaines 24 heures)

TLE

PériméSource: Space-Track

Époque: Nov 16, 2022, 09:07 UTC

1 54258U 22156B   22320.38000000 -.00015394  00000-0  00000-0 0  9993
2 54258  30.5010  10.5910 9639665  20.8820   1.0790  0.10372534    41

Suivez SLS R/B en temps réel avec AllMySat

Download on the App Store